Location: Penticton
(49.5000°N, 119.5830°W)
Time: 21:00:22
(UTC-07:00)

Daily predictions for brighter satellites

Satellite Brightness Start Highest point End
(mag) Time Altitude Azimuth Time Altitude Azimuth Time Altitude Azimuth
SMAP 3.5 18:28:51 10° S 18:33:29 70° WSW 18:38:10 10° NNW
Aureole 1 Rocket 3.9 18:27:34 10° S 18:33:41 48° ESE 18:38:22 10° NE
Cosmos 1371 Rocket 4.4 18:28:55 10° NNW 18:34:19 75° WSW 18:39:39 10° SSE
Cosmos 1833 Rocket 4.2 18:31:03 10° WSW 18:36:11 35° NW 18:41:22 10° NNE
COSMO-SKYMED 1 3.2 18:32:54 10° NNE 18:36:54 34° E 18:40:51 10° SSE
Cosmos 1484 Rocket 3.3 18:33:14 10° S 18:36:56 63° W 18:40:39 10° NNW
Landsat 4 3.6 18:33:13 10° NNE 18:36:57 67° ESE 18:40:39 10° S
Meteor 1-16 Rocket 4.2 18:32:13 10° S 18:37:23 58° E 18:42:40 10° NNE
CORIOLIS 4.4 18:32:01 10° SSE 18:37:24 78° WSW 18:42:52 10° NNW
USA 234 3.8 18:31:59 10° ENE 18:38:11 47° N 18:44:25 10° WNW
CZ-4 R/B 4.4 18:34:31 10° SSE 18:38:38 73° ENE 18:42:48 10° N
Cosmos 1703 3.7 18:36:06 10° N 18:39:51 39° ENE 18:43:33 10° SE
FENGYUN 3A 4.1 18:34:59 10° SE 18:40:01 41° ENE 18:45:04 10° N
SL-8 Rocket 4.0 18:34:14 10° S 18:40:21 67° E 18:46:34 10° NNE
Gbstr 26 Del rocket 3.5 18:38:18 10° WNW 18:42:57 72° N 18:48:46 10° E
Cosmos 1680 Rocket 3.9 18:37:59 10° SSW 18:43:15 69° WNW 18:48:31 10° NNE
Cosmos 1408 Rocket 3.9 18:39:07 10° NNW 18:43:34 75° W 18:48:00 10° S
ERS-2 3.1 18:46:26 10° S 18:50:03 54° WSW 18:53:43 10° NNW
Meteor 1-28 Rocket 3.2 18:46:40 10° NNE 18:50:30 82° ESE 18:54:17 10° S
Cosmos 2219 Rocket 3.2 18:46:15 10° NNW 18:50:58 27° NE 18:55:33 10° E
Cosmos 1400 Rocket 2.8 18:48:54 10° N 18:53:00 69° ENE 18:56:59 10° SSE
CZ-4 R/B 2.6 18:51:19 10° S 18:55:25 49° W 18:59:29 10° NNW
Cosmos 1242 Rocket 3.9 18:56:01 10° SSW 18:59:30 43° WNW 19:03:03 10° N
MOS 1 4.4 18:56:15 10° SSE 19:01:56 84° WSW 19:07:40 10° NNW
Cosmos 2218 Rocket 3.9 18:56:22 10° S 19:02:31 81° E 19:08:41 10° NNE
SL-16 R/B 3.4 18:57:12 10° NW 19:02:38 46° WSW 19:08:00 10° S
Cosmos 1908 4.1 18:59:58 10° SSE 19:03:20 28° E 19:06:41 10° NNE
Aureole 2 4.5 19:00:47 10° N 19:03:39 42° ENE 19:06:43 10° SE
BREEZE-M DEB (TANK) 3.9 19:03:32 10° WSW 19:04:51 13° SW 19:05:59 10° S
YAOGAN 1 3.4 19:01:27 10° S 19:05:42 55° W 19:10:00 10° NNW
Cosmos 2237 4.3 19:00:26 10° NNW 19:06:09 63° ENE 19:11:49 10° SE
Cosmos 1727 Rocket 4.0 19:02:26 10° N 19:08:51 85° E 19:15:12 10° S
Cosmos 1633 Rocket 4.5 19:07:41 10° NNE 19:10:51 19° ENE 19:11:58 17° E
GP-B 3.1 19:06:43 10° N 19:11:11 86° W 19:15:37 10° S
H-2A R/B 3.4 19:08:11 10° SE 19:11:44 35° ENE 19:15:20 10° N
Cosmos-2242 4.1 19:13:40 10° SSW 19:17:48 48° WNW 19:21:56 10° N
SPOT 3 Rocket 3.8 19:13:34 10° S 19:18:45 73° WSW 19:23:59 10° NNW
GRACE-2 3.5 19:18:01 10° S 19:20:35 68° E 19:23:10 10° N
Cosmos 2237 Rocket 3.3 19:15:56 10° NNW 19:20:42 26° NE 19:23:17 19° E
BREEZE-M DEB (TANK) 4.0 19:17:49 10° W 19:21:46 64° SSW 19:36:39 10° ESE
GRACE-1 3.5 19:20:18 10° S 19:22:53 77° E 19:25:29 10° N
Cosmos 2151 3.3 19:20:44 10° NNW 19:25:01 70° W 19:29:16 10° S
SKYMED 2 3.6 19:20:43 10° NNE 19:25:05 82° WNW 19:29:26 10° SSW
Cosmos 2123 Rocket 4.5 19:20:56 10° N 19:26:40 37° ENE 19:32:14 11° SE
CZ-2D R/B 4.2 19:27:24 26° E 19:28:05 27° ENE 19:31:23 10° N
ALOS 2.3 19:23:53 10° SSE 19:28:34 82° WSW 19:33:17 10° NNW
SL-16 R/B 3.8 19:25:28 10° N 19:29:11 17° NE 19:30:56 15° ENE
Abrixas rocket 2.3 19:27:19 10° WSW 19:30:35 59° SSE 19:31:42 35° ESE
CZ-4C R/B 3.3 19:28:02 10° SSE 19:31:35 21° ESE 19:31:35 21° ESE
Cosmos 1626 3.6 19:29:33 10° NNW 19:33:04 39° W 19:36:34 10° SSW
Cosmos 2098 Rocket 3.8 19:29:22 10° SSE 19:33:34 41° E 19:38:50 10° NNE
Geosat FO 4.5 19:31:37 15° SE 19:34:31 81° ENE 19:38:11 10° NNW
Cosmos 1315 Rocket 2.9 19:31:13 10° NNW 19:35:18 80° W 19:39:23 10° S
Cosmos 1452 Rocket 3.9 19:31:56 10° NNW 19:37:10 68° WSW 19:42:22 10° S
COSMOS 2428 2.6 19:36:38 10° NNW 19:42:22 78° ENE 19:47:22 14° SSE
USA 267 4.0 19:40:29 24° E 19:42:47 30° SE 19:48:21 10° S
Cosmos 1842 Rocket 4.1 19:38:33 10° SSW 19:42:59 63° WNW 19:47:26 10° N
Cosmos 1980 4.3 19:38:50 10° NNW 19:44:03 36° NE 19:45:55 29° E
Cosmos 2360 Rocket 3.1 19:39:56 10° NW 19:45:24 51° WSW 19:50:51 10° S
Cosmos 2333 Rocket 2.5 19:40:13 10° NNW 19:45:48 49° NE 19:48:29 29° ESE
BREEZE-M DEB (TANK) 4.4 19:22:43 10° W 19:46:23 80° SSW 19:49:53 27° ESE
Aureole 2 Rocket 2.9 19:43:31 10° NNW 19:47:11 46° ENE 19:47:44 43° E
Cosmos 2221 2.4 19:45:11 10° S 19:49:29 73° E 19:53:51 10° NNE
Resurs 01 Rocket 2.0 19:51:22 38° E 19:51:52 40° ENE 19:56:00 10° N
Cosmos 1833 4.2 19:46:54 10° SSW 19:52:37 89° WNW 19:58:18 10° NNE
RESURS DK-1 3.9 19:49:34 10° NW 19:53:23 36° WSW 19:57:10 10° S
Cosmos 921 Rocket 4.0 19:50:56 10° NNW 19:55:17 50° WSW 19:59:32 10° S
Spot 2 Rocket 3.9 19:54:44 36° E 19:55:51 42° ENE 20:00:37 10° N
CSL-04 DEB 4.3 19:53:08 20° SSE 19:55:57 80° ENE 20:00:01 10° NNW
Cosmos 2219 3.6 19:51:33 10° S 19:56:51 40° ESE 19:58:44 31° ENE
Cosmos 1110 Rocket 4.2 19:53:33 10° NNW 19:58:45 49° ENE 20:00:09 39° ESE
Cosmos 1461 4.4 19:55:29 10° WSW 19:59:15 33° NW 20:02:52 12° NNE
FengYun 1-2 T 4.3 19:54:23 10° SSE 19:59:53 79° WSW 20:05:25 10° NNW
Lacrosse 5 rocket 2.7 19:58:43 10° WNW 20:02:44 33° NNW 20:04:21 25° NNE
SJ-6B 2.7 20:01:41 23° S 20:03:56 78° WSW 20:07:41 10° NNW
ATLAS 5 CENTAUR R/B 4.0 20:01:28 10° NW 20:05:14 19° N 20:08:04 14° NE
Cosmos 44 4.3 20:01:43 10° S 20:03:58 25° SSE 20:03:58 25° SSE
Resurs 1-3 3.7 20:07:08 52° ENE 20:07:10 52° ENE 20:11:27 10° N
FREGAT/IRIS 4.0 20:05:24 16° SSW 20:07:28 39° W 20:10:20 10° NNW
Cosmos 2084 3.4 20:05:55 10° NW 20:09:23 54° NNE 20:09:23 54° NNE
MOS 1-B Rocket 3.8 20:12:52 24° SSE 20:16:28 80° ENE 20:22:38 10° NNW
Cosmos 1535 Rocket 4.3 20:10:46 10° S 20:16:53 81° E 20:23:02 10° N
Thor Agena Rocket 3.7 20:13:52 10° NNE 20:18:59 71° WNW 20:24:02 10° SSW
Iridium 4 Rocket 4.2 20:14:18 10° SSW 20:19:48 64° W 20:25:39 10° N
USA 234 3.3 20:18:22 41° E 20:20:44 69° NNE 20:27:16 10° WNW
Cosmos 44 Rocket 4.0 20:16:36 10° SSW 20:19:34 35° S 20:19:34 35° S
Geosat 4.4 20:21:43 44° NE 20:21:43 44° NE 20:26:26 10° NNW
Cosmos 1048 Rocket 3.8 20:16:34 10° SSW 20:21:42 79° ESE 20:26:02 15° NNE
Sich 1 3.1 20:22:00 10° NNW 20:26:22 74° W 20:27:27 49° SSW
Gbstr 26 Del rocket 3.9 20:24:58 10° WNW 20:30:04 60° SSW 20:31:29 47° SSE
Envisat 2.8 20:29:43 66° SE 20:30:25 80° ENE 20:35:32 10° NNW
NOSS 0 Rocket 3.8 20:24:57 10° NNW 20:31:10 88° ENE 20:32:57 50° SSE
Cosmos 2219 Rocket 2.3 20:29:52 10° NNW 20:35:27 69° WSW 20:37:18 42° S
Cosmos 1666 Rocket 4.1 20:35:35 10° NNW 20:39:52 55° W 20:40:40 47° SW
SL-8 R/B 4.3 20:38:33 10° WSW 20:42:17 48° SSW 20:42:17 48° SSW
Cosmos 1633 Rocket 3.7 20:44:41 10° NNW 20:49:01 54° W 20:49:05 54° W
Cosmos 1934 Rocket 4.3 20:49:26 10° SSW 20:55:45 65° WNW 21:02:08 10° N
Cosmos 1331 Rocket 4.2 20:51:52 10° NNW 20:56:59 69° W 20:56:59 69° W
Meteor 2-10 4.4 20:58:12 10° SSW 21:03:11 60° WNW 21:08:16 10° N
Meteor 2-3 Rocket 3.8 20:57:37 10° NNW 21:02:47 71° N 21:02:47 71° N
Cosmos 2237 Rocket 2.3 20:59:39 10° NNW 21:05:07 72° W 21:05:07 72° W
SL-16 R/B 3.0 21:08:49 10° NNW 21:12:49 44° N 21:12:49 44° N
CZ-4C R/B 3.4 21:14:08 10° SW 21:16:51 32° SW 21:16:51 32° SW
Cosmos 1605 Rocket 4.4 21:16:38 10° SSW 21:22:39 59° WNW 21:28:40 10° N
USA 267 3.5 21:27:52 57° SW 21:27:52 57° SW 21:32:56 10° SW
H-2A R/B 4.1 21:29:54 20° N 21:29:54 20° N 21:31:36 10° N
Resurs 01 Rocket 3.7 21:28:57 25° W 21:28:57 25° W 21:32:10 10° NW
Cosmos 2333 Rocket 3.5 21:24:49 10° NW 21:29:54 33° WSW 21:30:30 33° WSW
Cosmos 2219 4.3 21:35:33 10° WSW 21:40:48 42° WNW 21:40:48 42° WNW
Lacrosse 5 rocket 4.2 21:38:59 10° NW 21:40:02 16° NW 21:40:02 16° NW
ATLAS 5 CENTAUR R/B 4.0 21:46:48 10° NW 21:49:36 24° N 21:49:36 24° N
USA 234 4.2 22:05:44 41° W 22:05:44 41° W 22:10:20 10° WNW
